TimeCST,TemperatureF,Dew PointF,Humidity,Sea Level PressureIn,VisibilityMPH,Wind Direction,Wind SpeedMPH,Gust SpeedMPH,PrecipitationIn,Events,Conditions,WindDirDegrees,DateUTC
6:00 AM,76,74,90,29.81,12,Calm,Calm,,,,Overcast,,2013-09-15 12:00:00
6:00 AM,77.0,73.4,89,29.80,-9999.0,Calm,Calm,-,N/A,,Clear,0,2013-09-15 12:00:00
7:00 AM,80.6,77.0,89,29.83,-9999.0,Calm,Calm,-,N/A,,Clear,0,2013-09-15 13:00:00
8:00 AM,84.2,77.0,79,29.84,6.2,Calm,Calm,-,N/A,,Mostly Cloudy,0,2013-09-15 14:00:00
9:00 AM,86,77,69,29.88,12,WNW,6.9,,,,Overcast,290,2013-09-15 15:00:00
9:00 AM,86.0,77.0,74,29.86,6.2,WNW,6.9,-,N/A,,Mostly Cloudy,290,2013-09-15 15:00:00
10:00 AM,87.8,77.0,70,29.85,6.2,West,5.8,-,N/A,,Scattered Clouds,280,2013-09-15 16:00:00
11:00 AM,87.8,77.0,70,29.84,6.2,West,4.6,-,N/A,Rain,Rain,270,2013-09-15 17:00:00
11:15 AM,87.8,77.0,70,29.84,6.2,WNW,8.1,-,N/A,Rain,Rain Showers,290,2013-09-15 17:15:00
11:30 AM,80.6,75.2,84,29.83,6.2,North,4.6,-,N/A,Rain,Rain,350,2013-09-15 17:30:00
12:00 PM,81,78,88,29.84,9,West,4.6,,,Rain,Light Rain,270,2013-09-15 18:00:00
12:00 PM,80.6,78.8,94,29.83,6.2,West,4.6,-,N/A,Rain,Rain,270,2013-09-15 18:00:00
1:00 PM,84.2,78.8,84,29.79,6.2,West,6.9,-,N/A,,Mostly Cloudy,280,2013-09-15 19:00:00
2:00 PM,84.2,78.8,84,29.76,6.2,West,6.9,-,N/A,,Scattered Clouds,270,2013-09-15 20:00:00
3:00 PM,85,78,73,29.79,12,WNW,10.4,,,,Overcast,290,2013-09-15 21:00:00
3:00 PM,84.2,77.0,79,29.75,6.2,WNW,10.4,-,N/A,,Mostly Cloudy,290,2013-09-15 21:00:00
4:00 PM,86.0,77.0,74,29.74,6.2,WNW,6.9,-,N/A,,Mostly Cloudy,300,2013-09-15 22:00:00
5:00 PM,82.4,77.0,84,29.76,6.2,WSW,2.3,-,N/A,,Mostly Cloudy,250,2013-09-15 23:00:00
6:00 PM,83,77,77,29.81,12,Calm,Calm,,,Rain,Light Drizzle,,2013-09-16 00:00:00
6:00 PM,82.4,77.0,84,29.79,6.2,Calm,Calm,-,N/A,,Drizzle,0,2013-09-16 00:00:00
7:00 PM,82.4,77.0,84,29.82,6.2,Calm,Calm,-,N/A,,Mostly Cloudy,0,2013-09-16 01:00:00
8:00 PM,80.6,77.0,89,29.84,6.2,Calm,Calm,-,N/A,,Mostly Cloudy,0,2013-09-16 02:00:00